Regional Weather Roundup
Issued by NWS

Home | Current Version | Previous Version | Text Only | Print | Product List | Glossary Off
Versions: 1 2 3 4 5 6 7 8 9 10 11 12 13 14 15 16 17 18 19 20 21 22 23 24 25 26 27 28 29 30 31 32 33 34 35 36 37 38 39 40 41 42 43 44 45 46 47 48 49 50

000
ASUS43 KOAX 210310
RWRNE

WEATHER ROUNDUP FOR NEBRASKA
NATIONAL WEATHER SERVICE OMAHA NE
1000 PM CDT SUN AUG 20 2017

NOTES: SATELLITE DATA IS BEING USED TO AUGMENT CLOUD COVER ABOVE
       12000 FEET.
       "FAIR" INDICATES FEW OR NO CLOUDS BELOW 12,000 FEET WITH NO
       SIGNIFICANT WEATHER AND/OR OBSTRUCTIONS TO VISIBILITY.


NEZ001>004-019>022-054>056-210400-
NEBRASKA PANHANDLE

CITY           SKY/WX    TMP DP  RH WIND       PRES   REMARKS
SCOTTSBLUFF    MOCLDY    76  62  62 E12       30.00S
ALLIANCE       CLOUDY    68  59  73 E7        30.03R
CHADRON        CLEAR     73  56  54 E6        30.00R
GORDON         FAIR      67  57  70 E7        30.03R
KIMBALL        CLOUDY    69  58  68 SE6       30.10R
SIDNEY         CLEAR     69  62  78 SE8       30.07R
$$

NEZ057>060-069>072-079>082-210400-
SOUTHWEST NEBRASKA

CITY           SKY/WX    TMP DP  RH WIND       PRES   REMARKS
NORTH PLATTE   CLOUDY    75  70  84 E8        29.98R
IMPERIAL       PTCLDY    73  64  73 E5        29.99R
LEXINGTON      CLOUDY    77  74  90 NE6       29.95R
MCCOOK         CLEAR     76  71  85 NE5       29.94R
OGALLALA       CLOUDY    76  68  77 E6        30.00R
$$

NEZ005>010-023>029-035>040-094-210400-
NORTH CENTRAL NEBRASKA

CITY           SKY/WX    TMP DP  RH WIND       PRES   REMARKS
VALENTINE      CLOUDY    74  62  66 E13       30.01R
AINSWORTH      CLEAR     70  69  97 E5        30.01S
BROKEN BOW     MOCLDY    75  70  84 E10       29.98R
O`NEILL        CLEAR     71  70  97 E7        30.00R
ORD            MOCLDY    75  69  81 E6        29.97R
THEDFORD       CLEAR     72  68  88 E7        30.02R
$$

NEZ041-046>049-061>064-073>077-083>087-210400-
SOUTH CENTRAL NEBRASKA

CITY           SKY/WX    TMP DP  RH WIND       PRES   REMARKS
GRAND ISLAND   PTCLDY    75  75 100 NE7       29.94R
AURORA         CLEAR     75  74  98 E6        29.93R
HASTINGS       PTCLDY    81  72  74 SE10      29.94R
HEBRON         MOCLDY    82  74  77 SE7       29.93R
HOLDREGE       CLEAR     78  73  86 E8        29.93R
KEARNEY        CLOUDY    77  75  93 E9        29.94R
YORK           PTCLDY    77  73  88 SE9       29.94R
$$

NEZ011>018-030>034-042>045-210400-
NORTHEAST NEBRASKA

CITY           SKY/WX    TMP DP  RH WIND       PRES   REMARKS
NORFOLK        CLOUDY    76  70  82 NE5       29.98R
ALBION         MOCLDY    76  72  87 NE6       29.98R
BLAIR          PTCLDY    73  69  88 E7        29.97R
COLUMBUS       CLEAR     74  70  87 E6        29.96R
FREMONT        CLOUDY    76  66  71 E8        29.96S
TEKAMAH        CLOUDY    74  68  81 E5        29.96R
WAYNE          CLOUDY    75  72  91 E6        29.98R
$$

NEZ050>053-065>068-078-088>093-210400-
SOUTHEAST NEBRASKA

CITY           SKY/WX    TMP DP  RH WIND       PRES   REMARKS
LINCOLN        CLEAR     79  71  76 SE8       29.94R
OMAHA EPPLEY   PTCLDY    75  67  76 SE8       29.97R
BEATRICE       PTCLDY    81  73  77 SE14      29.94R
FALLS CITY     PTCLDY    76  72  87 SE6       29.96R
NEBRASKA CITY  CLEAR     75  73  95 SE5       29.97R
PLATTSMOUTH    PTCLDY    72  68  86 E7        29.98R
$$

NEZ044-045-051>053-067-210400-
OMAHA AREA

CITY           SKY/WX    TMP DP  RH WIND       PRES   REMARKS
OMAHA EPPLEY   PTCLDY    75  67  76 SE8       29.97R
BLAIR          PTCLDY    73  69  88 E7        29.97R
FREMONT        CLOUDY    76  66  71 E8        29.96S
MILLARD        PTCLDY    78  69  75 E6        29.96R
OFFUTT AFB     PTCLDY    73  68  86 E6        29.97R
PLATTSMOUTH    PTCLDY    72  68  86 E7        29.98R
WAHOO          FAIR      74  69  85 E6        29.95R
$$




USA.gov is the U.S. government's official web portal to all federal, state and local government web resources and services.